Weaverville, CA

2:54 AM PST on December 07, 2016 (GMT -0800)
Weaverville

Weather History for KO54 - January, 2014

Change the Weather History Date:

Saturday, January 4, 2014

  Actual Average (KRDD) Record (KRDD)
Temperature  
Mean Temperature 45 °F -  
Max Temperature 64 °F 54 °F 68 °F (2014)
Min Temperature 26 °F 36 °F 20 °F (1991)
Degree Days  
Heating Degree Days 20    
Cooling Degree Days 0    
Moisture  
Dew Point 23 °F    
Average Humidity 71    
Maximum Humidity 100    
Minimum Humidity 10    
Precipitation  
Precipitation 0.00 in 0.19 in 1.95 in (2008)
Month to date precipitation 0.77  
Year to date precipitation 0.77  
Sea Level Pressure  
Sea Level Pressure 30.15 in    
Wind  
Wind Speed 0 mph (NE)    
Max Wind Speed 5 mph    
Max Gust Speed -    
Visibility 6 miles    
Events      
T = Trace of Precipitation, MM = Missing Value Source: NWS Daily Summary

Daily Weather History Graph

Daily Weather History Graph

Search for Another Location

Airport or City:

Trip Planner

Search our weather history database for the weather conditions in past years. The results will help you decide how hot, cold, wet, or windy it might be!

Date:

Astronomy

Jan. 04, 2014 Rise Set
Actual Time 7:36 AM PST 4:57 PM PST
Civil Twilight 7:05 AM PST 5:28 PM PST
Nautical Twilight 6:31 AM PST 6:02 PM PST
Astronomical Twilight 5:57 AM PST 6:35 PM PST
Moon 9:43 AM PST (1/4) 9:25 PM PST (1/4)
Length of Visible Light 10h 23m
Length of Day
9h 21m
Waxing Crescent, 16% of the Moon is Illuminated
Jan 4
Waxing Crescent
Jan 7
First Quarter
Jan 15
Full
Jan 23
Last Quarter
Jan 30
New

Hourly Weather History & Observations

Time (PST) Temp. Windchill Dew Point Humidity Pressure Visibility Wind Dir Wind Speed Gust Speed Precip Events Conditions
12:15 AM 30.2 °F - 28.4 °F 93% 30.07 in 5.0 mi Calm Calm - N/A   Clear
12:35 AM 28.4 °F - 28.4 °F 100% 30.07 in 5.0 mi Calm Calm - N/A   Clear
12:55 AM 28.4 °F - 28.4 °F 100% 30.07 in 3.0 mi Calm Calm - N/A   Clear
1:15 AM 28.4 °F - 26.6 °F 93% 30.07 in 3.0 mi Calm Calm - N/A   Clear
1:35 AM 28.4 °F - 26.6 °F 93% 30.07 in 3.0 mi Calm Calm - N/A   Clear
1:55 AM 28.4 °F - 26.6 °F 93% 30.07 in 4.0 mi Calm Calm - N/A   Clear
2:15 AM 28.4 °F - 26.6 °F 93% 30.08 in 3.0 mi Calm Calm - N/A   Clear
2:35 AM 28.4 °F - 26.6 °F 93% 30.08 in 5.0 mi Calm Calm - N/A   Scattered Clouds
2:55 AM 26.6 °F - 26.6 °F 100% 30.08 in 3.0 mi Calm Calm - N/A   Mostly Cloudy
3:15 AM 28.4 °F - 26.6 °F 93% 30.08 in 2.0 mi Calm Calm - N/A   Overcast
3:35 AM 26.6 °F - 24.8 °F 93% 30.07 in 4.0 mi Calm Calm - N/A   Scattered Clouds
3:55 AM 26.6 °F - 24.8 °F 93% 30.07 in 5.0 mi Calm Calm - N/A   Mostly Cloudy
4:15 AM 26.6 °F - 24.8 °F 93% 30.07 in 5.0 mi Calm Calm - N/A   Overcast
4:35 AM 26.6 °F - 24.8 °F 93% 30.08 in 0.5 mi Calm Calm - N/A   Overcast
4:55 AM 26.6 °F - 26.6 °F 100% 30.09 in 0.5 mi Calm Calm - N/A   Overcast
5:15 AM 26.6 °F - 26.6 °F 100% 30.09 in 0.5 mi Calm Calm - N/A   Overcast
5:35 AM 28.4 °F - 26.6 °F 93% 30.10 in 2.0 mi Calm Calm - N/A   Overcast
5:55 AM 28.4 °F - 26.6 °F 93% 30.11 in 1.0 mi Calm Calm - N/A   Overcast
6:15 AM 28.4 °F - 26.6 °F 93% 30.12 in 0.2 mi Calm Calm - N/A   Overcast
6:35 AM 28.4 °F - 26.6 °F 93% 30.13 in 0.2 mi Calm Calm - N/A   Overcast
6:55 AM 28.4 °F - 26.6 °F 93% 30.13 in 0.8 mi Calm Calm - N/A   Overcast
7:15 AM 28.4 °F - 28.4 °F 100% 30.14 in 0.2 mi Calm Calm - N/A   Overcast
7:35 AM 28.4 °F - 28.4 °F 100% 30.15 in 0.2 mi Calm Calm - N/A   Overcast
7:55 AM 30.2 °F - 28.4 °F 93% 30.16 in 0.2 mi Calm Calm - N/A   Overcast
8:15 AM 30.2 °F - 28.4 °F 93% 30.17 in 0.2 mi Calm Calm - N/A   Overcast
8:35 AM 30.2 °F - 28.4 °F 93% 30.18 in 0.2 mi Calm Calm - N/A   Overcast
8:55 AM 28.4 °F - 28.4 °F 100% 30.19 in 0.2 mi Calm Calm - N/A   Overcast
9:15 AM 28.4 °F - 28.4 °F 100% 30.20 in 0.2 mi Calm Calm - N/A   Overcast
9:35 AM 30.2 °F - 28.4 °F 93% 30.20 in 0.5 mi Calm Calm - N/A   Overcast
9:55 AM 30.2 °F - 28.4 °F 93% 30.21 in 0.5 mi Calm Calm - N/A   Overcast
10:15 AM 30.2 °F - 28.4 °F 93% 30.21 in 0.2 mi Calm Calm - N/A   Overcast
10:35 AM 32.0 °F - 30.2 °F 93% 30.21 in 0.2 mi Calm Calm - N/A   Overcast
10:55 AM 32.0 °F - 30.2 °F 93% 30.20 in 0.8 mi Calm Calm - N/A   Overcast
11:15 AM 32.0 °F - 32.0 °F 100% 30.20 in 1.0 mi Calm Calm - N/A   Overcast
11:35 AM 32.0 °F - 32.0 °F 100% 30.20 in 4.0 mi Calm Calm - N/A   Overcast
11:55 AM 35.6 °F - 32.0 °F 87% 30.18 in 10.0 mi Calm Calm - N/A   Mostly Cloudy
12:15 PM 35.6 °F 32.8 °F 35.6 °F 100% 30.17 in 10.0 mi SSW 3.5 mph - N/A   Partly Cloudy
12:35 PM 39.2 °F - 33.8 °F 81% 30.16 in 10.0 mi Calm Calm - N/A   Clear
12:55 PM 41.0 °F - 33.8 °F 76% 30.15 in 10.0 mi Calm Calm - N/A   Clear
1:15 PM 46.4 °F 44.3 °F 33.8 °F 62% 30.14 in 10.0 mi SSW 4.6 mph - N/A   Clear
1:35 PM 50.0 °F - 32.0 °F 50% 30.13 in 10.0 mi SW 4.6 mph - N/A   Clear
1:55 PM 53.6 °F - 33.8 °F 47% 30.13 in 10.0 mi SSW 4.6 mph - N/A   Clear
2:15 PM 60.8 °F - 8.6 °F 13% 30.13 in 10.0 mi ENE 3.5 mph - N/A   Clear
2:35 PM 62.6 °F - 5.0 °F 10% 30.13 in 10.0 mi Calm Calm - N/A   Clear
2:55 PM 64.4 °F - 5.0 °F 10% 30.13 in 10.0 mi NE 4.6 mph - N/A   Clear
3:15 PM 62.6 °F - 6.8 °F 11% 30.13 in 10.0 mi Calm Calm - N/A   Clear
3:35 PM 64.4 °F - 6.8 °F 10% 30.14 in 10.0 mi East 3.5 mph - N/A   Clear
3:55 PM 62.6 °F - 5.0 °F 10% 30.14 in 10.0 mi Calm Calm - N/A   Clear
4:15 PM 60.8 °F - 8.6 °F 13% 30.15 in 10.0 mi Calm Calm - N/A   Clear
4:35 PM 57.2 °F - 10.4 °F 16% 30.15 in 10.0 mi Calm Calm - N/A   Clear
4:55 PM 48.2 °F - 19.4 °F 32% 30.16 in 10.0 mi Calm Calm - N/A   Clear
5:15 PM 44.6 °F 43.1 °F 19.4 °F 37% 30.16 in 10.0 mi NE 3.5 mph - N/A   Clear
5:35 PM 41.0 °F 38.0 °F 17.6 °F 39% 30.17 in 10.0 mi NE 4.6 mph - N/A   Clear
5:55 PM 39.2 °F 35.9 °F 17.6 °F 42% 30.17 in 9.0 mi NE 4.6 mph - N/A   Clear
6:15 PM 39.2 °F 37.0 °F 19.4 °F 45% 30.17 in 10.0 mi NE 3.5 mph - N/A   Clear
6:35 PM 37.4 °F 34.9 °F 21.2 °F 52% 30.18 in 10.0 mi NE 3.5 mph - N/A   Clear
6:55 PM 37.4 °F 34.9 °F 21.2 °F 52% 30.19 in 10.0 mi NE 3.5 mph - N/A   Clear
7:15 PM 35.6 °F - 19.4 °F 52% 30.19 in 10.0 mi Calm Calm - N/A   Clear
7:35 PM 35.6 °F - 21.2 °F 56% 30.19 in 9.0 mi Calm Calm - N/A   Clear
7:55 PM 35.6 °F - 19.4 °F 52% 30.19 in 10.0 mi Calm Calm - N/A   Clear
8:15 PM 33.8 °F - 19.4 °F 56% 30.20 in 10.0 mi Calm Calm - N/A   Clear
8:35 PM 35.6 °F - 17.6 °F 48% 30.21 in 10.0 mi Calm Calm - N/A   Clear
8:55 PM 33.8 °F - 17.6 °F 52% 30.21 in 10.0 mi Calm Calm - N/A   Clear
9:15 PM 33.8 °F - 17.6 °F 52% 30.22 in 10.0 mi Calm Calm - N/A   Clear
9:35 PM 32.0 °F 28.7 °F 19.4 °F 60% 30.22 in 10.0 mi North 3.5 mph - N/A   Clear
9:55 PM 32.0 °F - 19.4 °F 60% 30.23 in 10.0 mi Calm Calm - N/A   Clear
10:15 PM 32.0 °F - 19.4 °F 60% 30.23 in 10.0 mi Calm Calm - N/A   Clear
10:35 PM 30.2 °F - 19.4 °F 64% 30.23 in 10.0 mi Calm Calm - N/A   Clear
10:55 PM 30.2 °F - 19.4 °F 64% 30.23 in 10.0 mi Calm Calm - N/A   Clear
11:15 PM 28.4 °F - 19.4 °F 69% 30.23 in 10.0 mi Calm Calm - N/A   Clear
11:35 PM 28.4 °F - 19.4 °F 69% 30.24 in 10.0 mi Calm Calm - N/A   Clear
11:55 PM 28.4 °F - 19.4 °F 69% 30.24 in 10.0 mi Calm Calm - N/A   Clear